| time (UTC) | temp F | wind direction | speed MPH | gust MPH | rain 1hr in | rain 24hr in | rain mn in | humidity % | barometer mb |
| 20260904193135 | 61 | 57 | 0.0 | 0.0 | 0.00 | 0.09 | 0.09 | 84 | 1015.5 |
| 20260904192635 | 60 | 57 | 0.0 | 0.0 | 0.00 | 0.09 | 0.09 | 84 | 1015.2 |
| 20260904192131 | 60 | 57 | 0.0 | 0.0 | 0.00 | 0.09 | 0.09 | 88 | 1015.3 |
| 20260904191627 | 60 | 57 | 0.0 | 0.0 | 0.00 | 0.09 | 0.09 | 82 | 1015.6 |
| 20260904191124 | 60 | 57 | 0.0 | 0.0 | 0.00 | 0.09 | 0.09 | 84 | 1015.4 |
| 20260904190619 | 59 | 58 | 0.0 | 0.0 | 0.00 | 0.09 | 0.09 | 86 | 1015.6 |
| 20260904190115 | 59 | 57 | 0.0 | 0.0 | 0.00 | 0.09 | 0.09 | 89 | 1015.6 |
| 20260904185612 | 58 | 57 | 0.0 | 0.0 | 0.00 | 0.09 | 0.09 | 91 | 1015.8 |
| 20260904185106 | 58 | 56 | 0.0 | 0.0 | 0.00 | 0.09 | 0.09 | 89 | 1015.5 |
| 20260904184605 | 58 | 57 | 0.0 | 0.0 | 0.00 | 0.09 | 0.09 | 89 | 1015.4 |
| 20260904184101 | 58 | 57 | 0.0 | 0.0 | 0.00 | 0.09 | 0.09 | 92 | 1015.5 |
| 20260904183556 | 58 | 57 | 0.0 | 0.0 | 0.00 | 0.09 | 0.09 | 88 | 1015.3 |
| 20260904183051 | 58 | 57 | 0.0 | 0.0 | 0.00 | 0.09 | 0.09 | 91 | 1015.6 |
| 20260904182547 | 57 | 57 | 0.0 | 0.0 | 0.00 | 0.09 | 0.09 | 89 | 1015.4 |
| 20260904182047 | 58 | 56 | 0.0 | 0.0 | 0.00 | 0.09 | 0.09 | 91 | 1015.5 |
| 20260904181543 | 57 | 57 | 0.0 | 0.0 | 0.00 | 0.09 | 0.09 | 93 | 1015.4 |
| 20260904181042 | 57 | 56 | 0.0 | 0.0 | 0.00 | 0.09 | 0.09 | 93 | 1015.4 |
| 20260904180537 | 57 | 57 | 0.0 | 0.0 | 0.00 | 0.09 | 0.09 | 92 | 1015.5 |
| 20260904180032 | 57 | 57 | 0.0 | 0.0 | 0.00 | 0.09 | 0.09 | 93 | 1015.4 |
| 20260904175526 | 57 | 56 | 0.0 | 0.0 | 0.00 | 0.09 | 0.09 | 95 | 1015.1 |
| 20260904175025 | 57 | 56 | 0.0 | 0.0 | 0.00 | 0.09 | 0.09 | 96 | 1015.3 |
| 20260904174520 | 56 | 57 | 0.0 | 0.0 | 0.00 | 0.09 | 0.09 | 97 | 1015.3 |
| 20260904174017 | 56 | 14 | 0.0 | 0.0 | 0.00 | 0.09 | 0.09 | 98 | 1015.2 |
| 20260904173517 | 55 | 0 | 0.0 | 0.0 | 0.00 | 0.09 | 0.09 | 99 | 1015.2 |
| 20260904173012 | 55 | 0 | 0.0 | 0.0 | 0.00 | 0.09 | 0.09 | 99 | 1015.2 |
| 20260904172508 | 55 | 359 | 0.0 | 0.0 | 0.00 | 0.09 | 0.09 | 99 | 1015.1 |
| 20260904172007 | 54 | 359 | 0.0 | 0.0 | 0.00 | 0.09 | 0.09 | 99 | 1015.0 |
| 20260904171503 | 55 | 359 | 0.0 | 0.0 | 0.00 | 0.09 | 0.09 | 99 | 1015.2 |
| 20260904170958 | 53 | 359 | 0.0 | 0.0 | 0.00 | 0.09 | 0.09 | 99 | 1015.1 |
| 20260904170453 | 53 | 359 | 0.0 | 0.0 | 0.00 | 0.09 | 0.09 | 99 | 1015.1 |
| 20260904165949 | 54 | 359 | 0.0 | 0.0 | 0.00 | 0.09 | 0.09 | 99 | 1014.9 |
| 20260904165448 | 54 | 359 | 0.0 | 0.0 | 0.00 | 0.09 | 0.09 | 99 | 1014.9 |
| 20260904164947 | 54 | 359 | 0.0 | 0.0 | 0.00 | 0.09 | 0.09 | 99 | 1014.9 |
| 20260904164442 | 53 | 359 | 0.0 | 0.0 | 0.00 | 0.09 | 0.09 | 99 | 1015.1 |
| 20260904163938 | 53 | 359 | 0.0 | 0.0 | 0.00 | 0.09 | 0.09 | 99 | 1014.9 |
| 20260904163438 | 54 | 359 | 0.0 | 0.0 | 0.00 | 0.09 | 0.09 | 99 | 1014.9 |
| 20260904162937 | 53 | 359 | 0.0 | 0.0 | 0.00 | 0.09 | 0.09 | 99 | 1014.8 |
| 20260904162433 | 53 | 359 | 0.0 | 0.0 | 0.00 | 0.09 | 0.09 | 99 | 1014.9 |
| 20260904161922 | 53 | 359 | 0.0 | 0.0 | 0.00 | 0.09 | 0.09 | 99 | 1014.9 |
| 20260904161417 | 53 | 359 | 0.0 | 0.0 | 0.00 | 0.09 | 0.09 | 99 | 1014.7 |
| 20260904160914 | 53 | 359 | 0.0 | 0.0 | 0.00 | 0.09 | 0.09 | 99 | 1014.7 |
| 20260904160408 | 54 | 359 | 0.0 | 0.0 | 0.00 | 0.09 | 0.09 | 99 | 1014.7 |
| 20260904155857 | 54 | 359 | 0.0 | 0.0 | 0.00 | 0.09 | 0.09 | 99 | 1014.9 |
| 20260904155352 | 54 | 359 | 0.0 | 0.0 | 0.00 | 0.09 | 0.09 | 99 | 1014.8 |
| 20260904154850 | 54 | 359 | 0.0 | 0.0 | 0.00 | 0.09 | 0.09 | 99 | 1014.5 |
| 20260904154345 | 54 | 359 | 0.0 | 0.0 | 0.00 | 0.09 | 0.09 | 99 | 1014.6 |
| 20260904153841 | 54 | 359 | 0.0 | 0.0 | 0.00 | 0.09 | 0.09 | 99 | 1014.6 |
| 20260904153336 | 53 | 359 | 0.0 | 0.0 | 0.00 | 0.09 | 0.09 | 99 | 1014.5 |
| 20260904152833 | 53 | 359 | 0.0 | 0.0 | 0.00 | 0.09 | 0.09 | 99 | 1014.5 |
| 20260904152332 | 53 | 359 | 0.0 | 0.0 | 0.00 | 0.09 | 0.09 | 99 | 1014.5 |
| 20260904151827 | 53 | 359 | 0.0 | 0.0 | 0.00 | 0.09 | 0.09 | 99 | 1014.3 |
| 20260904151326 | 53 | 359 | 0.0 | 0.0 | 0.00 | 0.09 | 0.09 | 99 | 1014.4 |
| 20260904150823 | 53 | 359 | 0.0 | 0.0 | 0.00 | 0.09 | 0.09 | 99 | 1014.2 |
| 20260904150318 | 53 | 359 | 0.0 | 0.0 | 0.00 | 0.09 | 0.09 | 99 | 1014.2 |
| 20260904145815 | 53 | 359 | 0.0 | 0.0 | 0.00 | 0.09 | 0.09 | 99 | 1014.2 |
| 20260904145312 | 53 | 359 | 0.0 | 0.0 | 0.00 | 0.09 | 0.09 | 99 | 1014.2 |
| 20260904144807 | 53 | 359 | 0.0 | 0.0 | 0.00 | 0.09 | 0.09 | 99 | 1014.2 |
| 20260904144302 | 53 | 359 | 0.0 | 0.0 | 0.00 | 0.09 | 0.09 | 99 | 1014.0 |
| 20260904143758 | 52 | 359 | 0.0 | 0.0 | 0.00 | 0.09 | 0.09 | 99 | 1014.0 |
| 20260904143255 | 52 | 359 | 0.0 | 0.0 | 0.00 | 0.09 | 0.09 | 99 | 1014.0 |
| 20260904142750 | 52 | 359 | 0.0 | 0.0 | 0.00 | 0.09 | 0.09 | 99 | 1013.6 |
| 20260904142246 | 52 | 359 | 0.0 | 0.0 | 0.00 | 0.09 | 0.09 | 99 | 1013.7 |
| 20260904141746 | 52 | 359 | 0.0 | 0.0 | 0.07 | 0.09 | 0.09 | 99 | 1013.8 |
| 20260904141242 | 52 | 359 | 0.0 | 0.0 | 0.07 | 0.09 | 0.09 | 99 | 1013.7 |
| 20260904140737 | 52 | 0 | 0.0 | 0.0 | 0.00 | 0.08 | 0.08 | 99 | 1013.5 |
| 20260904140232 | 52 | 0 | 0.0 | 0.0 | 0.00 | 0.08 | 0.08 | 99 | 1013.5 |
| 20260904135731 | 52 | 0 | 0.0 | 0.0 | 0.00 | 0.08 | 0.08 | 99 | 1013.7 |
| 20260904135226 | 52 | 0 | 0.0 | 0.0 | 0.00 | 0.08 | 0.08 | 99 | 1013.7 |
| 20260904134722 | 52 | 0 | 0.0 | 0.0 | 0.00 | 0.08 | 0.08 | 99 | 1013.3 |
| 20260904134222 | 52 | 0 | 0.0 | 0.0 | 0.00 | 0.08 | 0.08 | 99 | 1013.4 |
| 20260904133716 | 52 | 0 | 0.0 | 0.0 | 0.05 | 0.08 | 0.08 | 99 | 1013.3 |
| 20260904133213 | 52 | 0 | 0.0 | 0.0 | 0.05 | 0.08 | 0.08 | 99 | 1013.3 |
| 20260904132712 | 52 | 0 | 0.0 | 0.0 | 0.07 | 0.07 | 0.07 | 99 | 1013.3 |
| 20260904132208 | 52 | 0 | 0.0 | 0.0 | 0.07 | 0.07 | 0.07 | 99 | 1013.3 |
| 20260904131706 | 52 | 0 | 0.0 | 0.0 | 0.07 | 0.06 | 0.06 | 99 | 1013.3 |
| 20260904131202 | 52 | 0 | 0.0 | 0.0 | 0.07 | 0.06 | 0.06 | 99 | 1013.0 |
| 20260904130657 | 52 | 0 | 0.0 | 0.0 | 0.00 | 0.05 | 0.05 | 99 | 1013.4 |
| 20260904130156 | 52 | 0 | 0.0 | 0.0 | 0.00 | 0.05 | 0.05 | 99 | 1013.1 |
| 20260904125653 | 52 | 0 | 0.0 | 0.0 | 0.05 | 0.05 | 0.05 | 99 | 1013.3 |
| 20260904125148 | 52 | 0 | 0.0 | 0.0 | 0.00 | 0.04 | 0.04 | 99 | 1013.1 |
| 20260904124643 | 51 | 0 | 0.0 | 0.0 | 0.07 | 0.04 | 0.04 | 99 | 1013.1 |
| 20260904124139 | 52 | 0 | 0.0 | 0.0 | 0.07 | 0.04 | 0.04 | 99 | 1013.1 |
| 20260904123638 | 52 | 0 | 0.0 | 0.0 | 0.07 | 0.04 | 0.04 | 99 | 1013.1 |
| 20260904123134 | 51 | 0 | 0.0 | 0.0 | 0.00 | 0.03 | 0.03 | 99 | 1012.9 |
| 20260904122629 | 51 | 0 | 0.0 | 0.0 | 0.00 | 0.03 | 0.03 | 99 | 1012.8 |
| 20260904122124 | 51 | 0 | 0.0 | 0.0 | 0.00 | 0.03 | 0.03 | 99 | 1012.9 |
| 20260904121619 | 51 | 0 | 0.0 | 0.0 | 0.05 | 0.03 | 0.03 | 99 | 1012.8 |
| 20260904121115 | 51 | 0 | 0.0 | 0.0 | 0.00 | 0.02 | 0.02 | 99 | 1013.0 |
| 20260904120611 | 51 | 0 | 0.0 | 0.0 | 0.00 | 0.02 | 0.02 | 99 | 1012.9 |
| 20260904120107 | 51 | 0 | 0.0 | 0.0 | 0.00 | 0.02 | 0.02 | 99 | 1012.9 |
| 20260904115602 | 51 | 0 | 0.0 | 0.0 | 0.00 | 0.02 | 0.02 | 99 | 1012.8 |
| 20260904115057 | 51 | 0 | 0.0 | 0.0 | 0.00 | 0.02 | 0.02 | 99 | 1012.8 |
| 20260904114556 | 51 | 0 | 0.0 | 0.0 | 0.00 | 0.02 | 0.02 | 99 | 1012.8 |
| 20260904114057 | 51 | 0 | 0.0 | 0.0 | 0.00 | 0.02 | 0.02 | 99 | 1012.7 |
| 20260904113551 | 51 | 0 | 0.0 | 0.0 | 0.00 | 0.02 | 0.02 | 99 | 1012.8 |
| 20260904113050 | 51 | 0 | 0.0 | 0.0 | 0.00 | 0.02 | 0.02 | 99 | 1012.7 |
| 20260904112546 | 51 | 0 | 0.0 | 0.0 | 0.07 | 0.02 | 0.02 | 99 | 1012.8 |
| 20260904112042 | 51 | 0 | 0.0 | 0.0 | 0.07 | 0.02 | 0.02 | 99 | 1012.6 |
| 20260904111537 | 51 | 0 | 0.0 | 0.0 | 0.00 | 0.01 | 0.01 | 99 | 1012.7 |
| 20260904111033 | 51 | 0 | 0.0 | 0.0 | 0.00 | 0.01 | 0.01 | 99 | 1012.6 |
| 20260904110532 | 51 | 0 | 0.0 | 0.0 | 0.00 | 0.01 | 0.01 | 99 | 1012.4 |
| 20260904110029 | 51 | 0 | 0.0 | 0.0 | 0.05 | 0.01 | 0.01 | 99 | 1012.4 |
| 20260904105527 | 51 | 0 | 0.0 | 0.0 | 0.05 | 0.01 | 0.01 | 99 | 1012.4 |
| 20260904105023 | 51 | 0 | 0.0 | 0.0 | 0.00 | 0.00 | 0.00 | 99 | 1012.3 |
| 20260904104519 | 51 | 0 | 0.0 | 0.0 | 0.00 | 0.00 | 0.00 | 99 | 1012.3 |
| 20260904104014 | 51 | 0 | 0.0 | 0.0 | 0.00 | 0.00 | 0.00 | 99 | 1012.3 |
| 20260904103510 | 51 | 0 | 0.0 | 0.0 | 0.00 | 0.00 | 0.00 | 99 | 1012.6 |
| 20260904103006 | 51 | 0 | 0.0 | 0.0 | 0.00 | 0.00 | 0.00 | 99 | 1012.3 |
| 20260904102501 | 51 | 0 | 0.0 | 0.0 | 0.00 | 0.00 | 0.00 | 99 | 1012.4 |
| 20260904101956 | 51 | 0 | 0.0 | 0.0 | 0.00 | 0.00 | 0.00 | 99 | 1012.3 |
| 20260904101453 | 51 | 0 | 0.0 | 0.0 | 0.00 | 0.00 | 0.00 | 99 | 1012.6 |
| 20260904100948 | 51 | 0 | 0.0 | 0.0 | 0.00 | 0.00 | 0.00 | 99 | 1012.2 |
| 20260904100444 | 51 | 0 | 0.0 | 0.0 | 0.00 | 0.00 | 0.00 | 99 | 1012.1 |
| 20260904095943 | 51 | 0 | 0.0 | 0.0 | 0.00 | 0.00 | 0.00 | 99 | 1012.2 |
| 20260904095439 | 51 | 0 | 0.0 | 0.0 | 0.00 | 0.00 | 0.00 | 99 | 1012.3 |
| 20260904094939 | 51 | 0 | 0.0 | 0.0 | 0.00 | 0.00 | 0.00 | 99 | 1012.3 |
| 20260904094434 | 51 | 0 | 0.0 | 0.0 | 0.00 | 0.00 | 0.00 | 99 | 1012.2 |
| 20260904093930 | 52 | 0 | 0.0 | 0.0 | 0.00 | 0.00 | 0.00 | 99 | 1012.2 |
| 20260904093426 | 52 | 0 | 0.0 | 0.0 | 0.00 | 0.00 | 0.00 | 99 | 1012.1 |
| 20260904092921 | 52 | 0 | 0.0 | 0.0 | 0.00 | 0.00 | 0.00 | 99 | 1012.3 |
| 20260904092418 | 52 | 0 | 0.0 | 0.0 | 0.00 | 0.00 | 0.00 | 99 | 1012.1 |
| 20260904091913 | 52 | 0 | 0.0 | 0.0 | 0.00 | 0.00 | 0.00 | 99 | 1012.3 |
| 20260904091409 | 52 | 0 | 0.0 | 0.0 | 0.00 | 0.00 | 0.00 | 99 | 1012.2 |
| 20260904090903 | 52 | 0 | 0.0 | 0.0 | 0.00 | 0.00 | 0.00 | 99 | 1012.3 |
| 20260904090359 | 52 | 0 | 0.0 | 0.0 | 0.00 | 0.00 | 0.00 | 99 | 1012.2 |
| 20260904085854 | 52 | 0 | 0.0 | 0.0 | 0.00 | 0.00 | 0.00 | 99 | 1012.3 |
| 20260904085349 | 52 | 0 | 0.0 | 0.0 | 0.00 | 0.00 | 0.00 | 99 | 1012.2 |
| 20260904084850 | 52 | 0 | 0.0 | 0.0 | 0.00 | 0.00 | 0.00 | 99 | 1012.1 |
| 20260904084346 | 52 | 0 | 0.0 | 0.0 | 0.00 | 0.00 | 0.00 | 99 | 1012.0 |
| 20260904083841 | 52 | 0 | 0.0 | 0.0 | 0.00 | 0.00 | 0.00 | 99 | 1012.2 |
| 20260904083337 | 52 | 0 | 0.0 | 0.0 | 0.00 | 0.00 | 0.00 | 99 | 1012.2 |
| 20260904082833 | 52 | 0 | 0.0 | 0.0 | 0.00 | 0.00 | 0.00 | 99 | 1012.1 |
| 20260904082327 | 52 | 0 | 0.0 | 0.0 | 0.00 | 0.00 | 0.00 | 99 | 1012.2 |
| 20260904081823 | 52 | 0 | 0.0 | 0.0 | 0.00 | 0.00 | 0.00 | 99 | 1012.0 |
| 20260904081318 | 52 | 0 | 0.0 | 0.0 | 0.00 | 0.00 | 0.00 | 99 | 1012.0 |
| 20260904080814 | 52 | 0 | 0.0 | 0.0 | 0.00 | 0.00 | 0.00 | 99 | 1012.0 |
| 20260904080309 | 52 | 0 | 0.0 | 0.0 | 0.00 | 0.00 | 0.00 | 99 | 1012.0 |
| 20260904075805 | 52 | 0 | 0.0 | 0.0 | 0.00 | 0.00 | 0.00 | 99 | 1011.9 |
| 20260904075300 | 52 | 0 | 0.0 | 0.0 | 0.00 | 0.00 | 0.00 | 99 | 1012.0 |
| 20260904074753 | 52 | 0 | 0.0 | 0.0 | 0.00 | 0.00 | 0.00 | 99 | 1011.9 |
| 20260904074249 | 52 | 0 | 0.0 | 0.0 | 0.00 | 0.00 | 0.00 | 99 | 1012.1 |
| 20260904073744 | 53 | 0 | 0.0 | 0.0 | 0.00 | 0.00 | 0.00 | 99 | 1012.1 |
| 20260904073240 | 53 | 0 | 0.0 | 0.0 | 0.00 | 0.00 | 0.00 | 99 | 1012.0 |
| 20260904072736 | 53 | 0 | 0.0 | 0.0 | 0.00 | 0.00 | 0.00 | 99 | 1012.0 |
| 20260904072235 | 53 | 0 | 0.0 | 0.0 | 0.00 | 0.00 | 0.00 | 99 | 1012.1 |
| 20260904071731 | 53 | 0 | 0.0 | 0.0 | 0.00 | 0.00 | 0.00 | 99 | 1012.2 |
| 20260904071231 | 53 | 0 | 0.0 | 0.0 | 0.00 | 0.00 | 0.00 | 99 | 1012.0 |
| 20260904070726 | 53 | 0 | 0.0 | 0.0 | 0.00 | 0.00 | 0.00 | 99 | 1012.0 |
| 20260904070225 | 53 | 0 | 0.0 | 0.0 | 0.00 | 0.00 | 0.00 | 99 | 1012.0 |
| 20260904065720 | 53 | 0 | 0.0 | 0.0 | 0.00 | 0.74 | 0.74 | 99 | 1011.9 |
| 20260904065217 | 53 | 0 | 0.0 | 0.0 | 0.00 | 0.74 | 0.74 | 99 | 1012.1 |
| 20260904064716 | 53 | 0 | 0.0 | 0.0 | 0.00 | 0.74 | 0.74 | 99 | 1012.1 |
| 20260904064212 | 53 | 0 | 0.0 | 0.0 | 0.00 | 0.74 | 0.74 | 99 | 1012.2 |
| 20260904063708 | 54 | 0 | 0.0 | 0.0 | 0.00 | 0.74 | 0.74 | 99 | 1012.1 |
| 20260904063203 | 54 | 0 | 0.0 | 0.0 | 0.00 | 0.74 | 0.74 | 99 | 1012.0 |
| 20260904062659 | 54 | 0 | 0.0 | 0.0 | 0.00 | 0.74 | 0.74 | 99 | 1012.1 |
| 20260904062155 | 54 | 0 | 0.0 | 0.0 | 0.00 | 0.74 | 0.74 | 99 | 1011.9 |
| 20260904061650 | 54 | 0 | 0.0 | 0.0 | 0.00 | 0.74 | 0.74 | 99 | 1012.0 |
| 20260904061146 | 54 | 0 | 0.0 | 0.0 | 0.00 | 0.74 | 0.74 | 99 | 1012.0 |
| 20260904060643 | 54 | 0 | 0.0 | 0.0 | 0.00 | 0.74 | 0.74 | 99 | 1012.3 |
| 20260904060139 | 54 | 0 | 0.0 | 0.0 | 0.00 | 0.74 | 0.74 | 99 | 1012.0 |
| 20260904055638 | 54 | 0 | 0.0 | 0.0 | 0.00 | 0.74 | 0.74 | 99 | 1012.2 |
| 20260904055134 | 54 | 0 | 0.0 | 0.0 | 0.00 | 0.74 | 0.74 | 99 | 1012.2 |
| 20260904054629 | 54 | 0 | 0.0 | 0.0 | 0.00 | 0.74 | 0.74 | 99 | 1012.0 |
| 20260904054126 | 54 | 0 | 0.0 | 0.0 | 0.00 | 0.74 | 0.74 | 99 | 1012.1 |
| 20260904053620 | 53 | 0 | 0.0 | 0.0 | 0.00 | 0.74 | 0.74 | 99 | 1012.1 |
| 20260904053115 | 53 | 0 | 0.0 | 0.0 | 0.00 | 0.74 | 0.74 | 99 | 1012.2 |
| 20260904052611 | 54 | 0 | 0.0 | 0.0 | 0.00 | 0.74 | 0.74 | 99 | 1012.0 |
| 20260904052107 | 54 | 0 | 0.0 | 0.0 | 0.00 | 0.74 | 0.74 | 99 | 1012.0 |
| 20260904051603 | 54 | 0 | 0.0 | 0.0 | 0.00 | 0.74 | 0.74 | 99 | 1012.2 |
| 20260904051103 | 54 | 0 | 0.0 | 0.0 | 0.00 | 0.74 | 0.74 | 99 | 1011.9 |
| 20260904050559 | 54 | 0 | 0.0 | 0.0 | 0.00 | 0.74 | 0.74 | 99 | 1012.1 |
| 20260904050055 | 54 | 0 | 0.0 | 0.0 | 0.00 | 0.74 | 0.74 | 99 | 1012.2 |
| 20260904045550 | 54 | 0 | 0.0 | 0.0 | 0.00 | 0.74 | 0.74 | 99 | 1012.2 |
| 20260904045050 | 54 | 0 | 0.0 | 0.0 | 0.00 | 0.74 | 0.74 | 99 | 1012.0 |
| 20260904044545 | 54 | 0 | 0.0 | 0.0 | 0.00 | 0.74 | 0.74 | 98 | 1012.0 |
| 20260904044042 | 54 | 0 | 0.0 | 0.0 | 0.00 | 0.74 | 0.74 | 98 | 1012.1 |
| 20260904043538 | 54 | 0 | 0.0 | 0.0 | 0.00 | 0.74 | 0.74 | 98 | 1011.8 |
| 20260904043034 | 54 | 0 | 0.0 | 0.0 | 0.07 | 0.74 | 0.74 | 98 | 1012.0 |
| 20260904042530 | 54 | 0 | 0.0 | 0.0 | 0.07 | 0.74 | 0.74 | 98 | 1012.1 |
| 20260904042025 | 54 | 0 | 0.0 | 0.0 | 0.05 | 0.73 | 0.73 | 98 | 1012.0 |
| 20260904041521 | 54 | 0 | 0.0 | 0.0 | 0.17 | 0.73 | 0.73 | 98 | 1012.1 |
| 20260904041017 | 54 | 0 | 0.0 | 0.0 | 0.12 | 0.71 | 0.71 | 98 | 1011.8 |
| 20260904040516 | 54 | 0 | 0.0 | 0.0 | 0.31 | 0.69 | 0.69 | 98 | 1011.9 |
| 20260904040014 | 54 | 0 | 0.0 | 0.0 | 0.35 | 0.69 | 0.69 | 98 | 1012.0 |
| 20260904035508 | 54 | 0 | 0.0 | 0.0 | 0.05 | 0.64 | 0.64 | 98 | 1012.1 |
| 20260904035007 | 54 | 0 | 0.0 | 0.0 | 0.00 | 0.63 | 0.63 | 98 | 1011.9 |
| 20260904034502 | 54 | 0 | 0.0 | 0.0 | 0.07 | 0.63 | 0.63 | 98 | 1011.8 |
| 20260904033958 | 54 | 0 | 0.0 | 0.0 | 0.07 | 0.63 | 0.63 | 98 | 1011.7 |
| 20260904033454 | 54 | 0 | 0.0 | 0.0 | 0.00 | 0.62 | 0.62 | 98 | 1011.6 |
| 20260904032950 | 54 | 0 | 0.0 | 0.0 | 0.00 | 0.62 | 0.62 | 98 | 1011.8 |
| 20260904032445 | 55 | 0 | 0.0 | 0.0 | 0.00 | 0.62 | 0.62 | 98 | 1011.5 |
| 20260904031944 | 55 | 0 | 0.0 | 0.0 | 0.00 | 0.62 | 0.62 | 98 | 1011.6 |
| 20260904031439 | 55 | 0 | 0.0 | 0.0 | 0.00 | 0.62 | 0.62 | 97 | 1011.7 |
| 20260904030936 | 55 | 0 | 0.0 | 0.0 | 0.00 | 0.62 | 0.62 | 97 | 1011.4 |
| 20260904030431 | 55 | 0 | 0.0 | 0.0 | 0.00 | 0.62 | 0.62 | 97 | 1011.5 |
| 20260904025926 | 55 | 0 | 0.0 | 0.0 | 0.00 | 0.62 | 0.62 | 97 | 1011.3 |
| 20260904025422 | 55 | 0 | 0.0 | 0.0 | 0.00 | 0.62 | 0.62 | 97 | 1011.3 |
| 20260904024922 | 55 | 0 | 0.0 | 0.0 | 0.00 | 0.62 | 0.62 | 97 | 1011.5 |
| 20260904024417 | 55 | 0 | 0.0 | 0.0 | 0.00 | 0.62 | 0.62 | 97 | 1011.5 |
| 20260904023913 | 55 | 0 | 0.0 | 0.0 | 0.00 | 0.62 | 0.62 | 97 | 1011.3 |
| 20260904023409 | 55 | 359 | 0.0 | 0.0 | 0.00 | 0.62 | 0.62 | 96 | 1011.3 |
| 20260904022908 | 55 | 359 | 0.0 | 0.0 | 0.00 | 0.62 | 0.62 | 96 | 1011.2 |
| 20260904022405 | 56 | 359 | 0.0 | 0.0 | 0.00 | 0.62 | 0.62 | 96 | 1011.1 |
| 20260904021901 | 56 | 359 | 0.0 | 0.0 | 0.00 | 0.62 | 0.62 | 96 | 1011.3 |
| 20260904021356 | 56 | 359 | 0.0 | 0.0 | 0.00 | 0.62 | 0.62 | 96 | 1011.4 |
| 20260904020852 | 56 | 359 | 0.0 | 0.0 | 0.00 | 0.62 | 0.62 | 95 | 1011.3 |
| 20260904020347 | 56 | 359 | 0.0 | 0.0 | 0.00 | 0.62 | 0.62 | 95 | 1011.4 |
| 20260904015845 | 56 | 359 | 0.0 | 0.0 | 0.00 | 0.62 | 0.62 | 95 | 1011.3 |
| 20260904015341 | 56 | 359 | 0.0 | 0.0 | 0.00 | 0.62 | 0.62 | 95 | 1011.3 |
| 20260904014840 | 56 | 359 | 0.0 | 0.0 | 0.00 | 0.62 | 0.62 | 95 | 1011.3 |
| 20260904014335 | 56 | 359 | 0.0 | 0.0 | 0.00 | 0.62 | 0.62 | 95 | 1011.1 |
| 20260904013831 | 56 | 359 | 0.0 | 0.0 | 0.00 | 0.62 | 0.62 | 95 | 1011.2 |
| 20260904013327 | 57 | 359 | 0.0 | 0.0 | 0.00 | 0.62 | 0.62 | 96 | 1011.1 |
| 20260904012823 | 57 | 359 | 0.0 | 0.0 | 0.00 | 0.62 | 0.62 | 96 | 1011.1 |
| 20260904012323 | 57 | 359 | 0.0 | 0.0 | 0.00 | 0.62 | 0.62 | 96 | 1011.2 |
| 20260904011822 | 57 | 359 | 0.0 | 0.0 | 0.00 | 0.62 | 0.62 | 96 | 1011.0 |
| 20260904011317 | 57 | 359 | 0.0 | 0.0 | 0.00 | 0.62 | 0.62 | 96 | 1011.1 |
| 20260904010811 | 57 | 359 | 0.0 | 0.0 | 0.00 | 0.62 | 0.62 | 95 | 1011.2 |
| 20260904010308 | 57 | 359 | 0.0 | 0.0 | 0.00 | 0.62 | 0.62 | 95 | 1011.1 |
| 20260904005803 | 57 | 359 | 0.0 | 0.0 | 0.00 | 0.62 | 0.62 | 95 | 1011.1 |
| 20260904005259 | 57 | 359 | 0.0 | 0.0 | 0.05 | 0.62 | 0.62 | 94 | 1011.3 |
| 20260904004753 | 57 | 359 | 0.0 | 0.0 | 0.05 | 0.62 | 0.62 | 94 | 1011.0 |
| 20260904004249 | 56 | 359 | 0.0 | 0.0 | 0.00 | 0.61 | 0.61 | 93 | 1011.1 |
| 20260904003744 | 57 | 359 | 0.0 | 0.0 | 0.00 | 0.61 | 0.61 | 94 | 1011.2 |
| 20260904003240 | 56 | 359 | 0.0 | 0.0 | 0.00 | 0.61 | 0.61 | 93 | 1011.1 |
| 20260904002735 | 57 | 359 | 0.0 | 0.0 | 0.00 | 0.61 | 0.61 | 94 | 1011.1 |
| 20260904002233 | 57 | 359 | 0.0 | 0.0 | 0.00 | 0.61 | 0.61 | 94 | 1011.0 |
| 20260904001731 | 57 | 359 | 0.0 | 0.0 | 0.00 | 0.61 | 0.61 | 94 | 1011.1 |
| 20260904001226 | 57 | 359 | 0.0 | 0.0 | 0.00 | 0.61 | 0.61 | 94 | 1011.1 |
| 20260904000721 | 58 | 359 | 0.0 | 0.0 | 0.00 | 0.61 | 0.61 | 94 | 1011.0 |
| 20260904000218 | 57 | 359 | 0.0 | 0.0 | 0.00 | 0.61 | 0.61 | 93 | 1011.0 |
| 20260903235715 | 58 | 359 | 0.0 | 0.0 | 0.00 | 0.61 | 0.61 | 94 | 1011.0 |
| 20260903235212 | 57 | 358 | 0.0 | 0.0 | 0.00 | 0.61 | 0.61 | 94 | 1011.0 |
| 20260903234706 | 57 | 358 | 0.0 | 0.0 | 0.00 | 0.61 | 0.61 | 93 | 1011.0 |
| 20260903234203 | 57 | 358 | 0.0 | 0.0 | 0.00 | 0.61 | 0.61 | 93 | 1010.7 |
| 20260903233658 | 57 | 358 | 0.0 | 0.0 | 0.00 | 0.61 | 0.61 | 93 | 1011.1 |
| 20260903233154 | 57 | 358 | 0.0 | 0.0 | 0.00 | 0.61 | 0.61 | 93 | 1011.1 |
| 20260903232647 | 57 | 358 | 0.0 | 0.0 | 0.00 | 0.61 | 0.61 | 93 | 1011.1 |
| 20260903232143 | 57 | 357 | 0.0 | 0.0 | 0.00 | 0.61 | 0.61 | 92 | 1010.9 |
| 20260903231642 | 58 | 358 | 0.0 | 0.0 | 0.00 | 0.61 | 0.61 | 89 | 1011.2 |
| 20260903231137 | 58 | 51 | 0.0 | 0.0 | 0.00 | 0.61 | 0.61 | 91 | 1011.2 |
| 20260903230633 | 58 | 4 | 0.0 | 1.0 | 0.00 | 0.61 | 0.61 | 90 | 1011.1 |
| 20260903230132 | 58 | 6 | 0.0 | 0.0 | 0.00 | 0.61 | 0.61 | 92 | 1011.0 |
| 20260903225629 | 57 | 5 | 0.0 | 0.0 | 0.00 | 0.61 | 0.61 | 93 | 1011.0 |
| 20260903225126 | 58 | 6 | 0.0 | 0.0 | 0.00 | 0.61 | 0.61 | 95 | 1011.3 |
| 20260903224621 | 58 | 5 | 0.0 | 0.0 | 0.00 | 0.61 | 0.61 | 96 | 1011.3 |
| 20260903224118 | 58 | 5 | 0.0 | 0.0 | 0.00 | 0.61 | 0.61 | 96 | 1011.4 |
| 20260903223613 | 57 | 5 | 0.0 | 0.0 | 0.00 | 0.61 | 0.61 | 96 | 1011.4 |
| 20260903223110 | 57 | 6 | 0.0 | 0.0 | 0.00 | 0.61 | 0.61 | 96 | 1011.4 |
| 20260903222606 | 57 | 5 | 0.0 | 0.0 | 0.00 | 0.61 | 0.61 | 95 | 1011.3 |
| 20260903222105 | 57 | 6 | 0.0 | 0.0 | 0.00 | 0.61 | 0.61 | 96 | 1011.2 |
| 20260903221601 | 57 | 5 | 0.0 | 0.0 | 0.00 | 0.61 | 0.61 | 96 | 1011.2 |
| 20260903221058 | 57 | 6 | 0.0 | 0.0 | 0.00 | 0.61 | 0.61 | 96 | 1011.3 |
| 20260903220557 | 57 | 6 | 0.0 | 0.0 | 0.00 | 0.61 | 0.61 | 96 | 1011.2 |
| 20260903220057 | 56 | 6 | 0.0 | 0.0 | 0.00 | 0.61 | 0.61 | 97 | 1011.3 |
| 20260903215556 | 56 | 5 | 0.0 | 0.0 | 0.00 | 0.61 | 0.61 | 96 | 1011.1 |
| 20260903215055 | 56 | 6 | 0.0 | 0.0 | 0.00 | 0.61 | 0.61 | 95 | 1011.2 |
| 20260903214550 | 57 | 6 | 0.0 | 0.0 | 0.00 | 0.61 | 0.61 | 95 | 1011.4 |
| 20260903214045 | 56 | 5 | 0.0 | 0.0 | 0.07 | 0.61 | 0.61 | 96 | 1011.3 |
| 20260903213540 | 57 | 5 | 0.0 | 0.0 | 0.07 | 0.61 | 0.61 | 95 | 1011.4 |
| 20260903213036 | 57 | 4 | 0.0 | 0.0 | 0.00 | 0.60 | 0.60 | 96 | 1011.4 |
| 20260903212532 | 57 | 4 | 0.0 | 0.0 | 0.00 | 0.60 | 0.60 | 96 | 1011.3 |
| 20260903212027 | 57 | 5 | 0.0 | 0.0 | 0.00 | 0.60 | 0.60 | 96 | 1011.3 |
| 20260903211522 | 57 | 4 | 0.0 | 0.0 | 0.00 | 0.60 | 0.60 | 96 | 1011.3 |
| 20260903211018 | 57 | 4 | 0.0 | 0.0 | 0.00 | 0.60 | 0.60 | 96 | 1011.2 |
| 20260903210518 | 57 | 43 | 0.0 | 0.0 | 0.00 | 0.60 | 0.60 | 96 | 1011.2 |
| 20260903210009 | 57 | 44 | 0.0 | 0.0 | 0.00 | 0.60 | 0.60 | 96 | 1011.1 |
| 20260903205508 | 57 | 43 | 0.0 | 0.0 | 0.00 | 0.60 | 0.60 | 96 | 1011.1 |
| 20260903205002 | 57 | 44 | 0.0 | 0.0 | 0.00 | 0.60 | 0.60 | 96 | 1011.0 |
| 20260903204459 | 57 | 45 | 0.0 | 0.0 | 0.00 | 0.60 | 0.60 | 97 | 1011.1 |
| 20260903203954 | 56 | 46 | 0.0 | 0.0 | 0.00 | 0.60 | 0.60 | 97 | 1011.2 |
| 20260903203449 | 56 | 40 | 0.0 | 0.0 | 0.00 | 0.60 | 0.60 | 97 | 1011.0 |
| 20260903202948 | 56 | 64 | 0.0 | 0.0 | 0.00 | 0.60 | 0.60 | 98 | 1011.1 |
| 20260903202444 | 55 | 64 | 0.0 | 0.0 | 0.00 | 0.60 | 0.60 | 98 | 1011.2 |
| 20260903201939 | 55 | 65 | 0.0 | 0.0 | 0.00 | 0.60 | 0.60 | 98 | 1011.3 |
| 20260903201434 | 55 | 65 | 0.0 | 0.0 | 0.00 | 0.60 | 0.60 | 98 | 1011.3 |
| 20260903200933 | 54 | 65 | 0.0 | 0.0 | 0.00 | 0.60 | 0.60 | 98 | 1011.2 |
| 20260903200428 | 54 | 64 | 0.0 | 0.0 | 0.12 | 0.60 | 0.60 | 98 | 1011.4 |
| 20260903195923 | 54 | 64 | 0.0 | 0.0 | 0.35 | 0.60 | 0.60 | 98 | 1011.1 |
| 20260903195420 | 55 | 64 | 0.0 | 0.0 | 0.26 | 0.57 | 0.57 | 98 | 1011.3 |
| 20260903194914 | 55 | 64 | 0.0 | 0.0 | 0.05 | 0.53 | 0.53 | 98 | 1011.6 |
| 20260903194410 | 55 | 64 | 0.0 | 0.0 | 0.07 | 0.52 | 0.52 | 98 | 1011.4 |
| 20260903193905 | 55 | 64 | 0.0 | 0.0 | 0.12 | 0.52 | 0.52 | 98 | 1011.4 |
| 20260903193401 | 55 | 64 | 0.0 | 0.0 | 0.05 | 0.51 | 0.51 | 98 | 1011.3 |